Weather History for PAQT - June, 2013

Change the Weather History Date:

Thursday, June 27, 2013

  Actual Average Record
Temperature  
Mean Temperature 62 °F -  
Max Temperature 73 °F - - ()
Min Temperature 48 °F - - ()
Degree Days  
Heating Degree Days 4    
Growing Degree Days 12 (Base 50)    
Moisture  
Dew Point 49 °F    
Average Humidity 66    
Maximum Humidity 89    
Minimum Humidity 45    
Precipitation  
Precipitation 0.00 in - - ()
Sea Level Pressure  
Sea Level Pressure 29.80 in    
Wind  
Wind Speed 7 mph (ESE)    
Max Wind Speed 16 mph    
Max Gust Speed 25 mph    
Visibility 10 miles    
Events Rain    
T = Trace of Precipitation, MM = Missing Value Source: NWS Daily Summary

Daily Weather History Graph

Daily Weather History Graph

Search for Another Location

Airport or City:

Trip Planner

Search our weather history database for the weather conditions in past years. The results will help you decide how hot, cold, wet, or windy it might be!

Date:

Astronomy

Dec. 31, 1969 Rise Set
Actual Time Sun does not rise Sun does not rise
Civil Twilight Sun does not rise Sun does not rise
Nautical Twilight Sun does not rise Sun does not rise
Astronomical Twilight Sun does not rise Sun does not rise
Moon 1:02 AM AKDT (6/27) 11:09 AM AKDT (6/27)
Length of Visible Light 24h 00m
Length of Day
24h 00m
Waning Gibbous, 75% of the Moon is Illuminated
Jun 27
Waning Gibbous
Jun 29
Last Quarter
Jul 7
New
Jul 15
First Quarter
Jul 22
Full

Hourly Weather History & Observations

Time (AKDT) Temp. Dew Point Humidity Pressure Visibility Wind Dir Wind Speed Gust Speed Precip Events Conditions
12:53 AM 54.0 °F 46.9 °F 77% 29.79 in 10.0 mi ESE 6.9 mph - N/A   Clear
1:53 AM 54.0 °F 46.0 °F 75% 29.79 in 10.0 mi East 4.6 mph - N/A   Clear
2:53 AM 54.0 °F 46.9 °F 77% 29.80 in 10.0 mi Calm Calm - N/A   Partly Cloudy
3:53 AM 52.0 °F 46.9 °F 83% 29.79 in 10.0 mi ENE 5.8 mph - N/A   Overcast
4:53 AM 53.1 °F 46.0 °F 77% 29.79 in 10.0 mi ESE 3.5 mph - 0.00 in Rain Light Rain
5:53 AM 50.0 °F 46.9 °F 89% 29.78 in 9.0 mi NNE 6.9 mph - 0.00 in Rain Light Rain
6:53 AM 51.1 °F 48.0 °F 89% 29.78 in 10.0 mi East 6.9 mph - 0.00 in   Mostly Cloudy
7:53 AM 54.0 °F 46.0 °F 75% 29.78 in 10.0 mi East 10.4 mph - N/A   Scattered Clouds
8:53 AM 57.0 °F 46.9 °F 69% 29.77 in 10.0 mi East 8.1 mph - N/A   Partly Cloudy
9:53 AM 61.0 °F 46.0 °F 58% 29.78 in 10.0 mi ESE 8.1 mph - N/A   Mostly Cloudy
10:53 AM 64.0 °F 44.1 °F 48% 29.78 in 10.0 mi ESE 6.9 mph - N/A   Mostly Cloudy
11:53 AM 66.0 °F 44.1 °F 45% 29.78 in 10.0 mi East 4.6 mph - N/A   Scattered Clouds
12:53 PM 66.9 °F 46.9 °F 49% 29.78 in 10.0 mi East 4.6 mph - N/A   Partly Cloudy
1:53 PM 66.9 °F 50.0 °F 54% 29.79 in 10.0 mi Calm Calm - N/A   Scattered Clouds
2:53 PM 69.1 °F 48.0 °F 47% 29.80 in 10.0 mi South 10.4 mph - N/A   Clear
3:53 PM 70.0 °F 53.1 °F 55% 29.79 in 10.0 mi SSE 11.5 mph - N/A   Clear
4:53 PM 72.0 °F 57.9 °F 61% 29.79 in 10.0 mi SSW 13.8 mph - N/A   Mostly Cloudy
5:53 PM 73.0 °F 55.0 °F 53% 29.80 in 10.0 mi SW 15.0 mph - N/A   Scattered Clouds
6:53 PM 73.0 °F 55.9 °F 55% 29.81 in 10.0 mi West 11.5 mph - N/A   Scattered Clouds
7:53 PM 73.0 °F 55.9 °F 55% 29.81 in 10.0 mi West 10.4 mph - N/A   Clear
8:53 PM 70.0 °F 54.0 °F 57% 29.83 in 10.0 mi NW 8.1 mph - N/A   Partly Cloudy
9:53 PM 66.9 °F 54.0 °F 63% 29.84 in 10.0 mi NNW 10.4 mph - N/A   Mostly Cloudy
10:53 PM 54.0 °F 48.0 °F 80% 29.88 in 10.0 mi NW 16.1 mph 25.3 mph N/A   Mostly Cloudy
11:53 PM 48.9 °F 45.0 °F 86% 29.90 in 10.0 mi NNW 12.7 mph 21.9 mph N/A   Clear